sat.trackr.live / text

‹ back to catalog

ONEWEB-0282

NORAD 49000 · 2021-060AK

PAYLOAD ACTIVE UNKNOWN

§ Identity

Operator
Country
UK
Launch date
2021-07-01
Launch site
VOSTO
Launch vehicle
Mass (kg)
RCS (m²)

Purposes: comms

External: N2YO · Heavens-Above · Gunter

§ Orbital elements

Epoch: 2026-05-25T05:18:44.845632Z

Period
109.37 min
Inclination
87.9102°
Eccentricity
0.0001842
Mean motion
13.16595558 rev/d
Perigee alt
1,196.4 km
Apogee alt
1,199.1 km
Semi-major
7,575.9 km
B*
1.9619e-5
RAAN
233.3400°
Arg perigee
100.5651°
Mean anomaly
259.5687°
Rev number
23,658

§ Raw data

ONEWEB-02821 49000U 21060AK  26145.22135238  .00000020  00000+0  19619-4 0  99972 49000  87.9102 233.3400 0001842 100.5651 259.5687 13.16595558236584

JSON: /api/v1/satellites/49000 · /tle

For live sub-satellite position, see the globe view (requires WebGL).

§ Visibility from observer

Set your observer location to see the next 7 days of passes ≥ 10°. The values pass through the URL so the page stays shareable.

No JS? Fill the form by hand. The geolocation button needs JavaScript.